Time,TemperatureF,DewpointF,PressureIn,WindDirection,WindDirectionDegrees,WindSpeedMPH,WindSpeedGustMPH,Humidity,HourlyPrecipIn,Conditions,Clouds,dailyrainin,SolarRadiationWatts/m^2,SoftwareType,DateUTC
2013-06-04 00:02:00,63.7,59.0,30.04,ENE,78,0.0,-999.0,84,-99.99,,,0.00,0,weatherlink.com 1.10,2013-06-04 05:02:00,
2013-06-04 00:17:00,63.5,59.0,30.04,ENE,78,0.0,-999.0,84,-99.99,,,0.00,0,weatherlink.com 1.10,2013-06-04 05:17:00,
2013-06-04 00:32:00,63.1,59.0,30.04,ENE,78,0.0,-999.0,85,-99.99,,,0.00,0,weatherlink.com 1.10,2013-06-04 05:32:00,
2013-06-04 00:47:00,62.5,58.0,30.04,ENE,78,0.0,-999.0,86,-99.99,,,0.00,0,weatherlink.com 1.10,2013-06-04 05:47:00,
2013-06-04 01:02:00,62.0,58.0,30.04,ENE,78,0.0,-999.0,87,-99.99,,,0.00,0,weatherlink.com 1.10,2013-06-04 06:02:00,
2013-06-04 01:17:00,62.0,58.0,30.05,ENE,78,0.0,-999.0,86,-99.99,,,0.00,0,weatherlink.com 1.10,2013-06-04 06:17:00,
2013-06-04 01:32:00,61.7,58.0,30.06,ENE,78,0.0,-999.0,86,-99.99,,,0.00,0,weatherlink.com 1.10,2013-06-04 06:32:00,
2013-06-04 01:47:00,61.3,57.0,30.05,ENE,78,0.0,-999.0,87,-99.99,,,0.00,0,weatherlink.com 1.10,2013-06-04 06:47:00,
2013-06-04 02:02:00,61.0,57.0,30.05,ENE,78,0.0,-999.0,87,-99.99,,,0.00,0,weatherlink.com 1.10,2013-06-04 07:02:00,
2013-06-04 02:17:00,60.7,57.0,30.05,ENE,78,0.0,-999.0,88,-99.99,,,0.00,0,weatherlink.com 1.10,2013-06-04 07:17:00,
2013-06-04 02:32:00,60.6,57.0,30.05,ENE,78,0.0,-999.0,88,-99.99,,,0.00,0,weatherlink.com 1.10,2013-06-04 07:32:00,
2013-06-04 02:47:00,60.7,57.0,30.05,ENE,78,0.0,-999.0,88,-99.99,,,0.00,0,weatherlink.com 1.10,2013-06-04 07:47:00,
2013-06-04 03:02:00,60.4,57.0,30.05,ENE,78,0.0,-999.0,88,-99.99,,,0.00,0,weatherlink.com 1.10,2013-06-04 08:02:00,
2013-06-04 03:17:00,60.0,57.0,30.05,ENE,78,0.0,-999.0,88,-99.99,,,0.00,0,weatherlink.com 1.10,2013-06-04 08:17:00,
2013-06-04 03:32:00,59.7,57.0,30.04,ENE,78,0.0,-999.0,89,-99.99,,,0.00,0,weatherlink.com 1.10,2013-06-04 08:32:00,
2013-06-04 03:47:00,59.5,57.0,30.04,ENE,78,0.0,-999.0,90,-99.99,,,0.00,0,weatherlink.com 1.10,2013-06-04 08:47:00,
2013-06-04 04:02:00,59.6,57.0,30.04,ENE,78,0.0,-999.0,90,-99.99,,,0.00,0,weatherlink.com 1.10,2013-06-04 09:02:00,
2013-06-04 04:18:00,59.9,57.0,30.04,ENE,78,0.0,-999.0,90,-99.99,,,0.00,0,weatherlink.com 1.10,2013-06-04 09:18:00,
2013-06-04 04:33:00,59.9,57.0,30.02,ENE,78,0.0,-999.0,89,-99.99,,,0.00,0,weatherlink.com 1.10,2013-06-04 09:33:00,
2013-06-04 04:48:00,59.8,57.0,30.01,ENE,78,0.0,-999.0,89,-99.99,,,0.00,0,weatherlink.com 1.10,2013-06-04 09:48:00,
2013-06-04 05:03:00,59.8,57.0,30.02,ENE,78,0.0,-999.0,89,-99.99,,,0.00,0,weatherlink.com 1.10,2013-06-04 10:03:00,
2013-06-04 05:18:00,59.7,57.0,30.03,ENE,78,0.0,-999.0,89,-99.99,,,0.00,0,weatherlink.com 1.10,2013-06-04 10:18:00,
2013-06-04 05:33:00,59.5,56.0,30.05,ENE,78,0.0,-999.0,89,-99.99,,,0.00,0,weatherlink.com 1.10,2013-06-04 10:33:00,
2013-06-04 05:48:00,59.4,56.0,30.05,ENE,78,0.0,-999.0,89,-99.99,,,0.00,0,weatherlink.com 1.10,2013-06-04 10:48:00,
2013-06-04 06:03:00,59.3,56.0,30.06,ENE,78,0.0,-999.0,90,-99.99,,,0.00,9,weatherlink.com 1.10,2013-06-04 11:03:00,
2013-06-04 06:18:00,59.0,56.0,30.06,ENE,78,0.0,-999.0,90,-99.99,,,0.00,18,weatherlink.com 1.10,2013-06-04 11:18:00,
2013-06-04 06:33:00,59.0,56.0,30.07,ENE,78,0.0,-999.0,90,-99.99,,,0.00,28,weatherlink.com 1.10,2013-06-04 11:33:00,
2013-06-04 06:48:00,59.2,57.0,30.06,ENE,78,0.0,-999.0,91,-99.99,,,0.00,97,weatherlink.com 1.10,2013-06-04 11:48:00,
2013-06-04 07:03:00,60.9,58.0,30.07,ENE,77,0.0,-999.0,90,-99.99,,,0.00,160,weatherlink.com 1.10,2013-06-04 12:03:00,
2013-06-04 07:18:00,62.8,59.0,30.06,ENE,77,0.0,-999.0,86,-99.99,,,0.00,190,weatherlink.com 1.10,2013-06-04 12:18:00,
2013-06-04 07:33:00,63.6,58.0,30.05,ENE,77,0.0,-999.0,83,-99.99,,,0.00,260,weatherlink.com 1.10,2013-06-04 12:33:00,
2013-06-04 07:48:00,63.9,59.0,30.05,ENE,77,0.0,-999.0,83,-99.99,,,0.00,279,weatherlink.com 1.10,2013-06-04 12:48:00,
2013-06-04 08:03:00,64.6,59.0,30.06,ENE,77,0.0,-999.0,82,-99.99,,,0.00,276,weatherlink.com 1.10,2013-06-04 13:03:00,
2013-06-04 08:18:00,65.4,59.0,30.06,ENE,77,0.0,-999.0,81,-99.99,,,0.00,339,weatherlink.com 1.10,2013-06-04 13:18:00,
2013-06-04 08:33:00,67.0,60.0,30.05,ENE,77,0.0,-999.0,79,-99.99,,,0.00,446,weatherlink.com 1.10,2013-06-04 13:33:00,
2013-06-04 08:48:00,68.6,61.0,30.06,ENE,77,0.0,-999.0,76,-99.99,,,0.00,341,weatherlink.com 1.10,2013-06-04 13:48:00,
2013-06-04 09:03:00,69.1,61.0,30.07,ENE,77,0.0,-999.0,75,-99.99,,,0.00,343,weatherlink.com 1.10,2013-06-04 14:03:00,
2013-06-04 09:18:00,69.4,61.0,30.06,ENE,77,0.0,-999.0,75,-99.99,,,0.00,350,weatherlink.com 1.10,2013-06-04 14:18:00,
2013-06-04 09:33:00,70.4,61.0,30.06,East,79,0.0,-999.0,73,-99.99,,,0.00,492,weatherlink.com 1.10,2013-06-04 14:33:00,
2013-06-04 09:48:00,71.3,62.0,30.07,East,79,0.0,-999.0,73,-99.99,,,0.00,396,weatherlink.com 1.10,2013-06-04 14:48:00,
2013-06-04 10:03:00,71.5,62.0,30.07,East,79,0.0,-999.0,72,-99.99,,,0.00,504,weatherlink.com 1.10,2013-06-04 15:03:00,
2013-06-04 10:19:00,72.2,62.0,30.08,East,80,0.0,-999.0,71,-99.99,,,0.00,411,weatherlink.com 1.10,2013-06-04 15:19:00,
2013-06-04 10:34:00,73.0,63.0,30.08,East,80,0.0,-999.0,72,-99.99,,,0.00,605,weatherlink.com 1.10,2013-06-04 15:34:00,
2013-06-04 10:49:00,74.4,64.0,30.08,East,94,0.0,-999.0,70,-99.99,,,0.00,668,weatherlink.com 1.10,2013-06-04 15:49:00,
2013-06-04 11:04:00,75.6,63.0,30.08,East,94,0.0,-999.0,65,-99.99,,,0.00,661,weatherlink.com 1.10,2013-06-04 16:04:00,
2013-06-04 11:19:00,75.7,64.0,30.08,East,94,0.0,-999.0,67,-99.99,,,0.00,636,weatherlink.com 1.10,2013-06-04 16:19:00,
2013-06-04 11:34:00,76.3,65.0,30.07,ESE,104,0.0,-999.0,67,-99.99,,,0.00,984,weatherlink.com 1.10,2013-06-04 16:34:00,
2013-06-04 11:49:00,77.6,64.0,30.07,ESE,119,2.0,-999.0,63,-99.99,,,0.00,779,weatherlink.com 1.10,2013-06-04 16:49:00,
2013-06-04 12:04:00,77.8,64.0,30.07,ESE,119,1.0,-999.0,62,-99.99,,,0.00,893,weatherlink.com 1.10,2013-06-04 17:04:00,
2013-06-04 12:19:00,78.3,64.0,30.07,ESE,119,0.0,-999.0,61,-99.99,,,0.00,1037,weatherlink.com 1.10,2013-06-04 17:19:00,
2013-06-04 12:34:00,78.4,63.0,30.06,ESE,119,0.0,-999.0,60,-99.99,,,0.00,840,weatherlink.com 1.10,2013-06-04 17:34:00,
2013-06-04 12:49:00,78.5,64.0,30.05,ESE,119,0.0,-999.0,61,-99.99,,,0.00,724,weatherlink.com 1.10,2013-06-04 17:49:00,
2013-06-04 13:04:00,78.5,64.0,30.05,ESE,119,0.0,-999.0,61,-99.99,,,0.00,1025,weatherlink.com 1.10,2013-06-04 18:04:00,
2013-06-04 13:19:00,79.2,64.0,30.04,SE,129,6.0,-999.0,60,-99.99,,,0.00,912,weatherlink.com 1.10,2013-06-04 18:19:00,
2013-06-04 13:34:00,79.3,64.0,30.03,SE,129,0.0,-999.0,60,-99.99,,,0.00,1056,weatherlink.com 1.10,2013-06-04 18:34:00,
2013-06-04 13:49:00,80.6,63.0,30.02,SE,130,0.0,-999.0,56,-99.99,,,0.00,1028,weatherlink.com 1.10,2013-06-04 18:49:00,
2013-06-04 14:04:00,79.5,64.0,30.02,SE,130,0.0,-999.0,60,-99.99,,,0.00,508,weatherlink.com 1.10,2013-06-04 19:04:00,
2013-06-04 14:19:00,79.4,64.0,30.02,SE,127,2.0,-999.0,59,-99.99,,,0.00,793,weatherlink.com 1.10,2013-06-04 19:19:00,
2013-06-04 14:34:00,79.6,65.0,30.02,SE,124,0.0,-999.0,61,-99.99,,,0.00,526,weatherlink.com 1.10,2013-06-04 19:34:00,
2013-06-04 14:49:00,80.5,63.0,30.02,SE,124,0.0,-999.0,56,-99.99,,,0.00,596,weatherlink.com 1.10,2013-06-04 19:49:00,
2013-06-04 15:04:00,80.5,63.0,30.01,SE,124,0.0,-999.0,56,-99.99,,,0.00,563,weatherlink.com 1.10,2013-06-04 20:04:00,
2013-06-04 15:19:00,80.1,61.0,30.02,SE,124,0.0,-999.0,53,-99.99,,,0.00,327,weatherlink.com 1.10,2013-06-04 20:19:00,
2013-06-04 15:49:00,79.1,61.0,30.01,SE,124,0.0,-999.0,54,-99.99,,,0.00,494,weatherlink.com 1.10,2013-06-04 20:49:00,
2013-06-04 16:04:00,79.9,62.0,30.01,SE,124,0.0,-999.0,55,-99.99,,,0.00,570,weatherlink.com 1.10,2013-06-04 21:04:00,
2013-06-04 16:19:00,80.2,63.0,30.00,SE,124,0.0,-999.0,55,-99.99,,,0.00,527,weatherlink.com 1.10,2013-06-04 21:19:00,
2013-06-04 16:34:00,80.5,62.0,29.99,SE,124,0.0,-999.0,54,-99.99,,,0.00,243,weatherlink.com 1.10,2013-06-04 21:34:00,
2013-06-04 16:49:00,79.8,61.0,29.98,SE,124,0.0,-999.0,52,-99.99,,,0.00,172,weatherlink.com 1.10,2013-06-04 21:49:00,
2013-06-04 17:04:00,78.5,60.0,29.97,SE,124,0.0,-999.0,54,-99.99,,,0.00,83,weatherlink.com 1.10,2013-06-04 22:04:00,
2013-06-04 17:19:00,77.2,61.0,29.97,ENE,62,0.0,-999.0,58,-99.99,,,0.00,62,weatherlink.com 1.10,2013-06-04 22:19:00,
2013-06-04 17:34:00,76.4,61.0,29.97,ENE,65,0.0,-999.0,60,-99.99,,,0.00,118,weatherlink.com 1.10,2013-06-04 22:34:00,
2013-06-04 17:49:00,76.2,62.0,29.97,ENE,71,6.0,-999.0,62,-99.99,,,0.00,100,weatherlink.com 1.10,2013-06-04 22:49:00,
2013-06-04 18:04:00,76.1,63.0,29.97,ENE,72,0.0,-999.0,64,-99.99,,,0.00,69,weatherlink.com 1.10,2013-06-04 23:04:00,
2013-06-04 18:19:00,75.8,63.0,29.97,ENE,72,0.0,-999.0,64,-99.99,,,0.00,65,weatherlink.com 1.10,2013-06-04 23:19:00,
2013-06-04 18:34:00,75.6,63.0,29.98,ENE,72,0.0,-999.0,65,-99.99,,,0.00,163,weatherlink.com 1.10,2013-06-04 23:34:00,
2013-06-04 18:49:00,75.9,63.0,29.98,ENE,72,0.0,-999.0,65,-99.99,,,0.00,98,weatherlink.com 1.10,2013-06-04 23:49:00,
2013-06-04 19:04:00,75.9,64.0,29.98,ENE,72,0.0,-999.0,66,-99.99,,,0.00,58,weatherlink.com 1.10,2013-06-05 00:04:00,
2013-06-04 19:19:00,75.4,64.0,29.98,ENE,72,0.0,-999.0,67,-99.99,,,0.00,51,weatherlink.com 1.10,2013-06-05 00:19:00,
2013-06-04 19:34:00,74.8,64.0,29.99,East,90,0.0,-999.0,69,-99.99,,,0.00,46,weatherlink.com 1.10,2013-06-05 00:34:00,
2013-06-04 19:49:00,74.1,64.0,30.00,East,90,0.0,-999.0,70,-99.99,,,0.00,23,weatherlink.com 1.10,2013-06-05 00:49:00,
2013-06-04 20:04:00,73.7,64.0,30.01,East,90,0.0,-999.0,71,-99.99,,,0.00,16,weatherlink.com 1.10,2013-06-05 01:04:00,
2013-06-04 20:19:00,73.0,63.0,30.00,East,90,0.0,-999.0,71,-99.99,,,0.00,0,weatherlink.com 1.10,2013-06-05 01:19:00,
2013-06-04 20:34:00,72.2,63.0,30.01,East,90,0.0,-999.0,73,-99.99,,,0.00,0,weatherlink.com 1.10,2013-06-05 01:34:00,
2013-06-04 20:49:00,71.6,63.0,30.01,East,90,0.0,-999.0,74,-99.99,,,0.00,0,weatherlink.com 1.10,2013-06-05 01:49:00,
2013-06-04 21:04:00,71.1,63.0,30.01,East,90,0.0,-999.0,75,-99.99,,,0.00,0,weatherlink.com 1.10,2013-06-05 02:04:00,
2013-06-04 21:19:00,70.6,62.0,30.02,East,90,0.0,-999.0,75,-99.99,,,0.00,0,weatherlink.com 1.10,2013-06-05 02:19:00,
2013-06-04 21:34:00,70.1,63.0,30.02,East,90,0.0,-999.0,77,-99.99,,,0.00,0,weatherlink.com 1.10,2013-06-05 02:34:00,
2013-06-04 21:49:00,69.6,63.0,30.02,East,90,0.0,-999.0,79,-99.99,,,0.00,0,weatherlink.com 1.10,2013-06-05 02:49:00,
2013-06-04 22:04:00,69.1,63.0,30.02,East,90,0.0,-999.0,80,-99.99,,,0.00,0,weatherlink.com 1.10,2013-06-05 03:04:00,
2013-06-04 22:19:00,68.6,63.0,30.03,East,90,0.0,-999.0,81,-99.99,,,0.00,0,weatherlink.com 1.10,2013-06-05 03:19:00,
2013-06-04 22:34:00,68.2,63.0,30.03,East,90,0.0,-999.0,82,-99.99,,,0.00,0,weatherlink.com 1.10,2013-06-05 03:34:00,
2013-06-04 22:49:00,67.9,63.0,30.02,East,90,0.0,-999.0,83,-99.99,,,0.00,0,weatherlink.com 1.10,2013-06-05 03:49:00,
2013-06-04 23:04:00,67.5,63.0,30.03,East,90,0.0,-999.0,84,-99.99,,,0.00,0,weatherlink.com 1.10,2013-06-05 04:04:00,
2013-06-04 23:19:00,67.3,62.0,30.03,East,90,0.0,-999.0,84,-99.99,,,0.00,0,weatherlink.com 1.10,2013-06-05 04:19:00,
2013-06-04 23:35:00,67.0,62.0,30.02,East,90,0.0,-999.0,84,-99.99,,,0.00,0,weatherlink.com 1.10,2013-06-05 04:35:00,
2013-06-04 23:50:00,66.8,62.0,30.02,East,90,0.0,-999.0,84,-99.99,,,0.00,0,weatherlink.com 1.10,2013-06-05 04:50:00,